Regional Weather Roundup
Issued by NWS Newport/Morehead, NC

Current Version | Previous Version | Graphics & Text | Print | Product List | Glossary Off
Versions: 1 2 3 4 5 6 7 8 9 10 11 12 13 14 15 16 17 18 19 20 21 22 23 24 25 26 27 28 29 30 31 32 33 34 35 36 37 38 39 40 41 42 43 44 45 46 47 48 49 50

000
ASUS42 KMHX 042213
RWRMHX
WEATHER ROUNDUP FOR EASTERN NORTH CAROLINA
NATIONAL WEATHER SERVICE NEWPORT/MOREHEAD CITY NC
600 PM EDT WED MAY 04 2016

NOTE: "FAIR" INDICATES FEW OR NO CLOUDS BELOW 12,000 FEET
WITH NO SIGNIFICANT WEATHER AND/OR OBSTRUCTIONS TO VISIBILITY

NCZ015>017-031-032-045>047-102-103-042300-
NORTH COAST

CITY           SKY/WX    TMP DP  RH WIND       PRES   REMARKS
EDENTON        CLOUDY    72  62  70 CALM      29.60S
ELIZABETH CITY CLOUDY    66  60  81 NE12      29.61R
KITTY HAWK     CLOUDY    60  56  85 N9        29.60F
MANTEO         CLOUDY    61  59  94 NE10      29.62R

$$

NCZ045>047-081-094-103-104-042300-
CENTRAL COAST

CITY           SKY/WX    TMP DP  RH WIND       PRES   REMARKS
FRISCO         CLOUDY    71  65  81 SE5       29.58S
SWANQUARTER    NOT AVBL

$$

NCZ095-097-098-100-101-042300-
SOUTHERN COAST

CITY           SKY/WX    TMP DP  RH WIND       PRES   REMARKS
BEAUFORT       CLOUDY    72  63  73 SW10      29.57S
CEDAR ISLAND   NOT AVBL
JACKSONVILLE   MOSUNNY   75  61  61 NW9       29.57R
PINEY ISLAND   CLOUDY   N/A N/A N/A NE6       29.58R
WILMINGTON     MOSUNNY   77  55  46 NW10      29.57R


$$

NCZ011>013-027>030-043-044-078>080-089-090>093-098-042300-
COASTAL PLAIN

CITY           SKY/WX    TMP DP  RH WIND       PRES   REMARKS
AHOSKIE        PTSUNNY   69  60  71 CALM      29.61R
CLINTON        SUNNY     75  54  47 N6        29.60F
ELIZABETHTOWN  SUNNY     77  50  39 NW5       29.59S
GOLDSBORO      MOSUNNY   76  54  46 W12       29.58R
GREENVILLE     MOSUNNY   73  57  56 W5        29.63R
HAVELOCK       CLOUDY    71  67  87 NE6       29.59R
KENANSVILLE    SUNNY     75  51  41 NW7       29.60
KINSTON        SUNNY     75  57  53 NW7       29.59S
NEW BERN       CLOUDY    75  58  55 NW10      29.59R
RICHLANDS      MOSUNNY   75  58  55 VRB7      29.59R
ROCKY MOUNT    MOSUNNY   72  54  53 W6        29.61R
WASHINGTON     SUNNY     74  62  66 N7        29.57S
WHITEVILLE     NOT AVBL

$$

AMZ130-135-150-152-154-156-158-170-250-252-270-ANZ085-086-088-633-658-670-042300-
MARINE OBSERVATIONS

STATION/POSITION TIME  TEMP    WIND        PRES    WAVE   SWELL
                       AIR SEA DIR/SP/G            HT/PER HT/PER
                 (UTC) (F)     (DEG/KT/KT) (MB)    (FT/S) (FT/S)
CHESAPEAKE LIGHT 2200   54      50/ 14/ 15 1004.3
64 E VA BEACH    2150   54 56   10/  8/  8 1003.2    3/ 7   3/ 7
DUCK             2100   58      30/ 14/ 16 1001.7
2 E DUCK         2111      60                N/A     3/ 5
OREGON INLET     2100   60 65  360/  8/ 12 1002.1
13E OREGON INLT  2200      62                N/A     3/ 8   2/ 8
HATTERAS CG      2100   70 70  170/  5/  6 1001.5
DIAMOND BUOY     2150   71 71  210/  4/  6 1001.3    3/ 7   3/ 7
CAPE LOOKOUT     2200   71     240/  9/ 11 1000.9
BEAUFORT LAB     2100   72 68  210/  9/ 13 1000.4
30 SE NEW RVR IN 2125      73                N/A     5/ 7
27 SE WRIGHTSVLE NOT AVBL
5 SE WRIGHTSVLE  2108   73 70  220/ 17/ 23 1001.8
225 S CAPE HAT   2150   75 74  210/ 16/ 19 1003.7    5/ 7   2/ 8
41 SE CHARLESTON 2150   73 75  240/ 19/ 21 1002.3    4/ 4   2/ 7

$$




USA.gov is the U.S. government's official web portal to all federal, state and local government web resources and services.